Weather History for KD95 - December, 2012

Change the Weather History Date:

Saturday, December 1, 2012

  Actual Average (KFNT) Record (KFNT)
Temperature  
Mean Temperature 42 °F 32 °F  
Max Temperature 54 °F 39 °F 63 °F (1982)
Min Temperature 30 °F 26 °F 4 °F (1966)
Degree Days  
Heating Degree Days 23 32  
Month to date heating degree days 32  
Since 1 July heating degree days 1513  
Cooling Degree Days 0 0  
Month to date cooling degree days 0  
Year to date cooling degree days 531  
Moisture  
Dew Point 38 °F    
Average Humidity 97    
Maximum Humidity 100    
Minimum Humidity 74    
Precipitation  
Precipitation 0.00 in 0.07 in 0.88 in (2006)
Month to date precipitation 0.07  
Year to date precipitation 29.52  
Snow  
Snow - 0.30 in 7.90 in (1974)
Month to date snowfall 0.3  
Since 1 July snowfall 3.2  
Snow Depth -    
Sea Level Pressure  
Sea Level Pressure 30.15 in    
Wind  
Wind Speed 5 mph ()    
Max Wind Speed 20 mph    
Max Gust Speed 31 mph    
Visibility 4.8 miles    
Events Fog    
T = Trace of Precipitation, MM = Missing Value Source: Averaged Metar Reports

Daily Weather History Graph

Daily Weather History Graph

Search for Another Location

Airport or City:

Trip Planner

Search our weather history database for the weather conditions in past years. The results will help you decide how hot, cold, wet, or windy it might be!

Date:

Astronomy

Dec. 01, 2012 Rise Set
Actual Time 7:45 AM EST 4:59 PM EST
Civil Twilight 7:13 AM EST 5:30 PM EST
Nautical Twilight 6:38 AM EST 6:06 PM EST
Astronomical Twilight 6:03 AM EST 6:40 PM EST
Moon 7:49 PM EST (12/1) 9:56 AM EST (12/1)
Length of Visible Light 10h 17m
Length of Day
9h 13m
Waning Gibbous, 92% of the Moon is Illuminated
Dec 1
Waning Gibbous
Dec 6
Last Quarter
Dec 13
New
Dec 20
First Quarter
Dec 28
Full

Hourly Weather History & Observations

Time (EST) Temp. Windchill Dew Point Humidity Pressure Visibility Wind Dir Wind Speed Gust Speed Precip Events Conditions
12:13 AM 32.0 °F 27.5 °F 32.0 °F 100% 30.25 in 7.0 mi ESE 4.6 mph - N/A   Overcast
12:33 AM 32.0 °F 27.5 °F 32.0 °F 100% 30.25 in 7.0 mi ESE 4.6 mph - N/A   Overcast
12:53 AM 32.0 °F - 32.0 °F 100% 30.24 in 7.0 mi Calm Calm - N/A   Overcast
1:13 AM 32.0 °F - 32.0 °F 100% 30.25 in 7.0 mi Calm Calm - N/A   Overcast
1:33 AM 32.0 °F 27.5 °F 32.0 °F 100% 30.26 in 7.0 mi ESE 4.6 mph - N/A   Overcast
1:53 AM 32.0 °F 27.5 °F 32.0 °F 100% 30.27 in 7.0 mi ESE 4.6 mph - N/A   Overcast
2:13 AM 31.8 °F 28.5 °F 31.8 °F 100% 30.25 in 5.0 mi ESE 3.5 mph - N/A   Overcast
2:33 AM 31.6 °F 28.3 °F 31.6 °F 100% 30.24 in 7.0 mi ESE 3.5 mph - N/A   Overcast
2:53 AM 31.6 °F 28.3 °F 31.6 °F 100% 30.26 in 7.0 mi ESE 3.5 mph - N/A   Overcast
3:13 AM 31.5 °F - 31.5 °F 100% 30.26 in 5.0 mi Calm Calm - N/A   Overcast
3:53 AM 31.1 °F 25.4 °F 31.1 °F 100% 30.25 in 5.0 mi ESE 5.8 mph - N/A   Overcast
4:13 AM 31.1 °F 26.4 °F 31.1 °F 100% 30.26 in 7.0 mi ESE 4.6 mph - N/A   Overcast
4:33 AM 31.1 °F 25.4 °F 31.1 °F 100% 30.25 in 5.0 mi SE 5.8 mph - N/A   Overcast
4:53 AM 30.9 °F 25.2 °F 30.9 °F 100% 30.27 in 5.0 mi SE 5.8 mph - N/A   Overcast
5:13 AM 30.9 °F 25.2 °F 30.9 °F 100% 30.27 in 4.0 mi ESE 5.8 mph - N/A   Overcast
5:33 AM 30.9 °F 25.2 °F 30.9 °F 100% 30.26 in 4.0 mi SE 5.8 mph - N/A   Overcast
5:53 AM 30.7 °F 24.9 °F 30.7 °F 100% 30.26 in 4.0 mi ESE 5.8 mph - N/A   Overcast
6:13 AM 30.7 °F 26.0 °F 30.7 °F 100% 30.26 in 4.0 mi ESE 4.6 mph - N/A   Overcast
7:13 AM 30.7 °F 24.9 °F 30.7 °F 100% 30.25 in 1.2 mi ESE 5.8 mph - N/A   Overcast
7:34 AM 30.6 °F 24.7 °F 30.6 °F 100% 30.25 in 1.0 mi SE 5.8 mph - N/A   Overcast
7:53 AM 30.7 °F 23.3 °F 30.7 °F 100% 30.26 in 1.5 mi SE 8.1 mph - N/A   Overcast
8:13 AM 30.7 °F 23.3 °F 30.7 °F 100% 30.27 in 0.8 mi ESE 8.1 mph - N/A   Overcast
8:34 AM 30.7 °F 23.3 °F 30.7 °F 100% 30.26 in 0.8 mi SE 8.1 mph - N/A   Overcast
8:53 AM 30.9 °F 24.3 °F 30.9 °F 100% 30.25 in 1.0 mi SE 6.9 mph - N/A   Overcast
9:13 AM 31.5 °F 25.8 °F 31.5 °F 100% 30.26 in 0.5 mi SE 5.8 mph - N/A Fog Light Freezing Fog
9:34 AM 32.0 °F 28.7 °F 32.0 °F 100% 30.26 in 0.5 mi SE 3.5 mph - N/A Fog Fog
9:53 AM 32.0 °F 26.4 °F 32.0 °F 100% 30.25 in 0.2 mi SE 5.8 mph - N/A Fog Fog
10:13 AM 32.2 °F 25.0 °F 32.2 °F 100% 30.23 in 0.2 mi SE 8.1 mph - N/A Fog Fog
10:33 AM 32.9 °F 25.9 °F 32.9 °F 100% 30.23 in 0.2 mi SE 8.1 mph - N/A Fog Fog
10:53 AM 33.4 °F 28.1 °F 33.4 °F 100% 30.23 in 0.2 mi SE 5.8 mph - N/A Fog Fog
11:13 AM 34.0 °F 28.8 °F 34.0 °F 100% 30.22 in 0.2 mi SE 5.8 mph - N/A Fog Fog
11:33 AM 34.7 °F 28.8 °F 34.7 °F 100% 30.20 in 0.2 mi SE 6.9 mph - N/A Fog Fog
11:53 AM 35.6 °F 30.7 °F 35.6 °F 100% 30.20 in 0.2 mi SE 5.8 mph - N/A Fog Fog
12:13 PM 36.3 °F 31.6 °F 36.3 °F 100% 30.19 in 0.5 mi ESE 5.8 mph - N/A Fog Fog
12:33 PM 37.0 °F 32.4 °F 37.0 °F 100% 30.18 in 0.5 mi SSE 5.8 mph - N/A Fog Fog
12:53 PM 37.9 °F 32.7 °F 37.9 °F 100% 30.17 in 1.2 mi SSE 6.9 mph - N/A   Overcast
1:13 PM 38.8 °F 34.6 °F 38.8 °F 100% 30.16 in 2.0 mi SSE 5.8 mph - N/A   Overcast
1:33 PM 39.6 °F 34.7 °F 39.6 °F 100% 30.15 in 2.5 mi SSE 6.9 mph - N/A   Overcast
1:53 PM 40.1 °F 35.3 °F 40.1 °F 100% 30.14 in 2.5 mi SSE 6.9 mph - N/A   Overcast
2:13 PM 41.2 °F 37.3 °F 41.2 °F 100% 30.13 in 3.0 mi SE 5.8 mph - N/A   Overcast
2:33 PM 41.9 °F 36.9 °F 41.9 °F 100% 30.12 in 3.0 mi SSE 8.1 mph - N/A   Overcast
2:53 PM 42.8 °F 37.5 °F 42.8 °F 100% 30.11 in 4.0 mi South 9.2 mph - N/A   Scattered Clouds
3:13 PM 43.3 °F 40.7 °F 43.3 °F 100% 30.11 in 4.0 mi SSE 4.6 mph - N/A   Clear
3:33 PM 43.9 °F 41.3 °F 43.9 °F 100% 30.10 in 5.0 mi SSE 4.6 mph - N/A   Clear
3:53 PM 44.1 °F 42.5 °F 44.1 °F 100% 30.10 in 5.0 mi SE 3.5 mph - N/A   Clear
4:13 PM 44.2 °F 42.7 °F 44.2 °F 100% 30.10 in 5.0 mi SE 3.5 mph - N/A   Clear
4:33 PM 43.7 °F 42.1 °F 43.7 °F 100% 30.09 in 5.0 mi SE 3.5 mph - N/A   Clear
4:53 PM 43.9 °F 41.3 °F 43.9 °F 100% 30.08 in 5.0 mi SSE 4.6 mph - N/A   Clear
5:13 PM 44.2 °F 41.8 °F 43.9 °F 99% 30.08 in 7.0 mi SSE 4.6 mph - N/A   Clear
5:33 PM 44.1 °F 41.5 °F 43.9 °F 99% 30.08 in 7.0 mi SE 4.6 mph - N/A   Clear
5:53 PM 44.2 °F 42.7 °F 43.7 °F 98% 30.07 in 7.0 mi SSE 3.5 mph - N/A   Clear
6:13 PM 44.6 °F - 43.3 °F 95% 30.07 in 7.0 mi Calm Calm - N/A   Scattered Clouds
6:33 PM 45.5 °F 42.5 °F 44.2 °F 95% 30.06 in 7.0 mi SE 5.8 mph - N/A   Overcast
6:53 PM 46.6 °F - 44.1 °F 91% 30.05 in 7.0 mi SSE 6.9 mph - N/A   Overcast
7:13 PM 47.5 °F - 45.0 °F 91% 30.04 in 7.0 mi SSE 6.9 mph - N/A   Overcast
7:33 PM 48.4 °F - 45.0 °F 88% 30.04 in 7.0 mi SSE 5.8 mph - N/A   Overcast
7:53 PM 48.2 °F - 45.9 °F 92% 30.03 in 7.0 mi SSE 10.4 mph - N/A   Overcast
8:13 PM 48.6 °F - 45.9 °F 90% 30.02 in 7.0 mi SSE 6.9 mph - N/A   Overcast
8:33 PM 48.9 °F - 46.9 °F 93% 30.02 in 7.0 mi SSE 8.1 mph - N/A   Overcast
8:53 PM 49.6 °F - 48.2 °F 95% 30.01 in 7.0 mi SSE 8.1 mph - N/A   Overcast
9:13 PM 51.3 °F - 49.3 °F 93% 30.00 in 7.0 mi South 11.5 mph - N/A   Overcast
9:33 PM 52.7 °F - 48.2 °F 85% 29.99 in 10.0 mi South 18.4 mph 23.0 mph N/A   Overcast
9:53 PM 52.7 °F - 49.3 °F 88% 29.98 in 10.0 mi South 16.1 mph 21.9 mph N/A   Overcast
10:13 PM 53.8 °F - 48.4 °F 82% 29.98 in 10.0 mi SSW 16.1 mph 21.9 mph N/A   Overcast
10:33 PM 54.9 °F - 48.2 °F 78% 29.96 in 10.0 mi South 15.0 mph 27.6 mph N/A   Overcast
10:54 PM 54.5 °F - 48.9 °F 81% 29.96 in 10.0 mi SSW 19.6 mph 28.8 mph N/A   Overcast
11:13 PM 54.3 °F - 49.1 °F 83% 29.96 in 10.0 mi SSW 17.3 mph 26.5 mph N/A   Overcast
11:33 PM 54.5 °F - 49.3 °F 83% 29.96 in 10.0 mi SSW 17.3 mph 31.1 mph N/A   Overcast
11:53 PM 54.9 °F - 46.6 °F 74% 29.96 in 10.0 mi SSW 13.8 mph 27.6 mph N/A   Overcast